Find Starlink 35750

NORAD ID: 66209 Int'l Des: 2025-244 Owner: SPXS Country: US Constellation: starlink operational
LEOCIRCULAR

Aktuelle Ansicht

3D-Globus wird geladen...

Über Starlink 35750

Beschreibung wird geladen...

Nächste Überflüge

Passes for default location (London). Set your location on the main map for personalized predictions.

Höhenverlauf

Loading altitude history...

Zweizeiliger Elementsatz

1 66209U 25244D 26146.54739170 .00015475 00000-0 53374-3 0 9992
2 66209 53.1599 228.0058 0001281 66.9345 293.1791 15.30186293 33586
Epoch: 26. Mai 2026 • Age: 7 hours

Aktueller Status

Höhe 494.0 km
Geschwindigkeit 7.62 km/s
Subsatellitenpunkt -51.91°S, 39.24°W
Startdatum 28. Okt. 2025
Alter 0.5 years
Typ internet

Technische Details

Klassifizierung Payload
Masse 575.00 kg
Trockenmasse 530.00 kg
Gesamtmasse 575.00 kg
Länge 0.30 m
Durchmesser 4.10 m
Spannweite 29.00 m
Form Box + pan
Hersteller SPXS
Bus-Typ Starlink V2MO
Phasenstatus In Orbit
Besitzer/Staat SPXS/US

Most Searched